User: anonymous   Login
Location: Unspecified
(0.0000°N, 0.0000°E)
Time: 18:43:32
(UTC+00:00)
Language:

OBJECT Z - Orbit

View from above orbital plane
View from above orbital plane
View from above satellite
View from above satellite

Ground track
Ground track

The orbit data is extracted from the following two-line orbital elements,

1 43134U 18004Z   18351.17075053  .00000903  00000-0  41358-4 0  9991
2 43134  97.5131  54.1651 0009964 169.5570 190.5875 15.23055173 51559
Epoch (UTC): 17 December 2018 04:05:52
Eccentricity: 0.0009964
inclination: 97.5131°
perigee height: 490 km
apogee height: 503 km
right ascension of ascending node: 54.1651°
argument of perigee: 169.5570°
revolutions per day: 15.23055173
mean anomaly at epoch: 190.5875°
orbit number at epoch: 5155

The dashed part of the orbit path shows where the satellite is in the earth's shadow,  

DLR